Location: Presov
(49.0000°N, 21.2500°E)
Time: 21:06:38
(UTC+02:00)

ISS - Pass Details

Date: 24 May 2025
Orbit: 415 x 416 km, 51.6° (Epoch: 16 June)

Event Time Altitude Azimuth Distance (km) Brightness Sun altitude
Rises 21:29:06 0° 288° (WNW) 2,362 1.2 -9.1°
Reaches altitude 10° 21:31:21 10° 278° (W) 1,494 -0.2 -9.4°
Maximum altitude 21:34:19 30° 215° (SW) 779 -2.5 -9.7°
Enters shadow 21:36:42 14° 158° (SSE) 1,280 -1.9 -9.9°
